Вернуться в каталог

GLOBALSTAR M024

АктивенСвязьMEO
NORAD 25883·PAYLOAD·🇺🇸 United States

Запущен Aug 17, 1999 с Cape Canaveral Space Force Station

Loading…

Ближайшие Пролёты (ближайшие 24 часа)

TLE

СвежийSource: Space-Track

Эпоха: Sep 14, 2026, 12:40 UTC

1 25883U 99043A   26257.52827067 -.00000139  00000-0 -26306-2 0  9994
2 25883  52.0005  75.4616 0002075 106.0296 286.3164 11.10170512165323

Отслеживайте GLOBALSTAR M024 в реальном времени с AllMySat

Download on the App Store